| time (UTC) | temp F | wind direction | speed knots | gust knots | rain 1hr in | rain 24hr in | rain mn in | humidity % | barometer mb |
| 20260507152757 | 58 | 275 | 1.7 | 3.5 | 0.00 | 0.00 | 0.00 | 43 | 1007.6 |
| 20260507152253 | 57 | 46 | 0.9 | 1.7 | 0.00 | 0.00 | 0.00 | 46 | 1008.0 |
| 20260507151749 | 58 | 88 | 0.9 | 3.5 | 0.00 | 0.00 | 0.00 | 44 | 1008.0 |
| 20260507151245 | 57 | 190 | 1.7 | 3.5 | 0.00 | 0.00 | 0.00 | 45 | 1008.2 |
| 20260507150743 | 57 | 203 | 0.0 | 3.5 | 0.00 | 0.00 | 0.00 | 51 | 1008.0 |
| 20260507150239 | 56 | 185 | 0.9 | 3.5 | 0.00 | 0.00 | 0.00 | 50 | 1008.1 |
| 20260507145735 | 57 | 31 | 0.9 | 2.6 | 0.00 | 0.00 | 0.00 | 50 | 1008.2 |
| 20260507145232 | 56 | 89 | 0.0 | 2.6 | 0.00 | 0.00 | 0.00 | 52 | 1008.2 |
| 20260507144729 | 56 | 171 | 0.9 | 2.6 | 0.00 | 0.00 | 0.00 | 56 | 1008.1 |
| 20260507144227 | 55 | 306 | 0.9 | 3.5 | 0.00 | 0.00 | 0.00 | 58 | 1007.9 |
| 20260507143723 | 56 | 312 | 0.9 | 3.5 | 0.00 | 0.00 | 0.00 | 56 | 1008.0 |
| 20260507143220 | 56 | 279 | 1.7 | 2.6 | 0.00 | 0.00 | 0.00 | 62 | 1008.0 |
| 20260507142716 | 54 | 237 | 0.0 | 0.9 | 0.00 | 0.00 | 0.00 | 60 | 1007.9 |
| 20260507142213 | 55 | 22 | 0.9 | 2.6 | 0.00 | 0.00 | 0.00 | 61 | 1007.8 |
| 20260507141709 | 53 | 118 | 0.9 | 2.6 | 0.00 | 0.00 | 0.00 | 63 | 1008.0 |
| 20260507141206 | 53 | 168 | 0.9 | 1.7 | 0.00 | 0.00 | 0.00 | 66 | 1007.9 |
| 20260507140702 | 55 | 64 | 1.7 | 2.6 | 0.00 | 0.00 | 0.00 | 67 | 1007.7 |
| 20260507140200 | 54 | 131 | 0.0 | 0.9 | 0.00 | 0.00 | 0.00 | 71 | 1007.7 |
| 20260507135657 | 53 | 199 | 0.0 | 0.9 | 0.00 | 0.00 | 0.00 | 68 | 1007.7 |
| 20260507135154 | 53 | 203 | 2.6 | 2.6 | 0.00 | 0.00 | 0.00 | 67 | 1007.8 |
| 20260507134650 | 53 | 116 | 0.0 | 0.9 | 0.00 | 0.00 | 0.00 | 69 | 1007.7 |
| 20260507134147 | 54 | 266 | 0.9 | 2.6 | 0.00 | 0.00 | 0.00 | 66 | 1008.0 |
| 20260507133643 | 55 | 317 | 2.6 | 3.5 | 0.00 | 0.00 | 0.00 | 65 | 1007.5 |
| 20260507133140 | 54 | 201 | 0.9 | 2.6 | 0.00 | 0.00 | 0.00 | 66 | 1008.0 |
| 20260507132637 | 53 | 212 | 0.9 | 1.7 | 0.00 | 0.00 | 0.00 | 69 | 1007.9 |
| 20260507132133 | 52 | 261 | 0.0 | 3.5 | 0.00 | 0.00 | 0.00 | 70 | 1008.0 |
| 20260507131630 | 51 | 77 | 0.0 | 1.7 | 0.00 | 0.00 | 0.00 | 75 | 1008.2 |
| 20260507131128 | 51 | 200 | 0.0 | 0.9 | 0.00 | 0.00 | 0.00 | 74 | 1008.1 |
| 20260507130624 | 51 | 19 | 0.9 | 2.6 | 0.00 | 0.00 | 0.00 | 72 | 1008.2 |
| 20260507130122 | 51 | 31 | 2.6 | 3.5 | 0.00 | 0.00 | 0.00 | 73 | 1008.3 |
| 20260507125621 | 51 | 267 | 0.0 | 1.7 | 0.00 | 0.00 | 0.00 | 73 | 1008.4 |
| 20260507125118 | 52 | 160 | 0.9 | 1.7 | 0.00 | 0.00 | 0.00 | 71 | 1008.4 |
| 20260507124614 | 52 | 217 | 0.0 | 1.7 | 0.00 | 0.00 | 0.00 | 75 | 1008.3 |
| 20260507124112 | 51 | 96 | 0.9 | 0.9 | 0.00 | 0.00 | 0.00 | 73 | 1008.1 |
| 20260507123610 | 51 | 103 | 0.0 | 0.9 | 0.00 | 0.00 | 0.00 | 72 | 1008.0 |
| 20260507123107 | 51 | 92 | 1.7 | 1.7 | 0.00 | 0.00 | 0.00 | 72 | 1007.9 |
| 20260507122602 | 51 | 83 | 0.9 | 0.9 | 0.00 | 0.00 | 0.00 | 74 | 1008.0 |
| 20260507122058 | 50 | 49 | 0.0 | 0.0 | 0.00 | 0.00 | 0.00 | 75 | 1008.1 |
| 20260507121554 | 50 | 322 | 0.0 | 0.9 | 0.00 | 0.00 | 0.00 | 76 | 1008.0 |
| 20260507121050 | 51 | 171 | 0.0 | 0.9 | 0.00 | 0.00 | 0.00 | 78 | 1008.1 |
| 20260507120546 | 51 | 121 | 0.9 | 0.9 | 0.00 | 0.00 | 0.00 | 75 | 1007.9 |
| 20260507120043 | 50 | 203 | 1.7 | 1.7 | 0.00 | 0.00 | 0.00 | 77 | 1008.1 |
| 20260507115539 | 49 | 148 | 0.0 | 1.7 | 0.00 | 0.00 | 0.00 | 80 | 1008.2 |
| 20260507115035 | 49 | 284 | 0.0 | 0.0 | 0.00 | 0.00 | 0.00 | 79 | 1008.5 |
| 20260507114531 | 49 | 224 | 0.0 | 0.9 | 0.00 | 0.00 | 0.00 | 83 | 1008.4 |
| 20260507114029 | 48 | 290 | 0.0 | 0.0 | 0.00 | 0.00 | 0.00 | 89 | 1008.2 |
| 20260507113526 | 47 | 163 | 0.0 | 0.0 | 0.00 | 0.00 | 0.00 | 93 | 1008.2 |
| 20260507113023 | 47 | 90 | 0.0 | 0.0 | 0.00 | 0.00 | 0.00 | 98 | 1008.2 |
| 20260507112521 | 46 | 84 | 0.0 | 0.0 | 0.00 | 0.00 | 0.00 | 99 | 1008.2 |
| 20260507112017 | 46 | 113 | 0.0 | 0.0 | 0.00 | 0.00 | 0.00 | 99 | 1008.2 |
| 20260507111515 | 46 | 126 | 0.0 | 0.0 | 0.00 | 0.00 | 0.00 | 99 | 1008.1 |
| 20260507111010 | 45 | 126 | 0.0 | 0.0 | 0.00 | 0.00 | 0.00 | 99 | 1008.2 |
| 20260507110508 | 45 | 128 | 0.0 | 0.0 | 0.00 | 0.00 | 0.00 | 99 | 1008.3 |
| 20260507110004 | 44 | 113 | 0.0 | 0.0 | 0.00 | 0.00 | 0.00 | 99 | 1008.1 |
| 20260507105500 | 44 | 99 | 0.0 | 0.0 | 0.00 | 0.00 | 0.00 | 99 | 1008.0 |
| 20260507104957 | 44 | 97 | 0.0 | 0.0 | 0.00 | 0.00 | 0.00 | 99 | 1007.8 |
| 20260507104454 | 43 | 95 | 0.0 | 0.0 | 0.00 | 0.00 | 0.00 | 99 | 1007.7 |
| 20260507103950 | 43 | 95 | 0.0 | 0.0 | 0.00 | 0.00 | 0.00 | 99 | 1007.7 |
| 20260507103447 | 43 | 125 | 0.0 | 0.0 | 0.00 | 0.00 | 0.00 | 99 | 1007.6 |
| 20260507102943 | 43 | 133 | 0.0 | 0.0 | 0.00 | 0.00 | 0.00 | 99 | 1007.8 |
| 20260507102440 | 43 | 132 | 0.0 | 0.0 | 0.00 | 0.00 | 0.00 | 99 | 1007.7 |
| 20260507101936 | 43 | 132 | 0.0 | 0.0 | 0.00 | 0.00 | 0.00 | 99 | 1007.8 |
| 20260507101431 | 43 | 129 | 0.0 | 0.0 | 0.00 | 0.00 | 0.00 | 99 | 1007.7 |
| 20260507100928 | 43 | 129 | 0.0 | 0.0 | 0.00 | 0.00 | 0.00 | 99 | 1007.7 |
| 20260507100426 | 43 | 137 | 0.0 | 0.0 | 0.00 | 0.00 | 0.00 | 99 | 1007.6 |
| 20260507095924 | 44 | 139 | 0.0 | 0.0 | 0.00 | 0.00 | 0.00 | 99 | 1007.9 |
| 20260507095421 | 44 | 140 | 0.0 | 0.0 | 0.00 | 0.00 | 0.00 | 99 | 1007.9 |
| 20260507094918 | 44 | 305 | 0.0 | 0.0 | 0.00 | 0.00 | 0.00 | 99 | 1007.7 |
| 20260507094414 | 44 | 307 | 0.0 | 0.0 | 0.00 | 0.00 | 0.00 | 99 | 1007.5 |
| 20260507093911 | 44 | 307 | 0.0 | 0.0 | 0.00 | 0.00 | 0.00 | 99 | 1008.0 |
| 20260507093409 | 45 | 308 | 0.0 | 0.0 | 0.00 | 0.00 | 0.00 | 99 | 1008.1 |
| 20260507092907 | 45 | 187 | 0.0 | 0.0 | 0.00 | 0.00 | 0.00 | 99 | 1008.2 |
| 20260507092403 | 45 | 160 | 0.0 | 0.0 | 0.00 | 0.00 | 0.00 | 99 | 1007.9 |
| 20260507091900 | 45 | 160 | 0.0 | 0.0 | 0.00 | 0.00 | 0.00 | 99 | 1008.2 |
| 20260507091356 | 45 | 160 | 0.0 | 0.0 | 0.00 | 0.00 | 0.00 | 99 | 1008.4 |
| 20260507090852 | 45 | 160 | 0.0 | 0.0 | 0.00 | 0.00 | 0.00 | 99 | 1008.2 |
| 20260507090348 | 45 | 163 | 0.0 | 0.0 | 0.00 | 0.00 | 0.00 | 99 | 1008.3 |
| 20260507085845 | 45 | 148 | 0.0 | 0.0 | 0.00 | 0.00 | 0.00 | 99 | 1008.3 |
| 20260507085342 | 45 | 135 | 0.0 | 0.0 | 0.00 | 0.00 | 0.00 | 99 | 1008.2 |
| 20260507084840 | 45 | 217 | 0.0 | 0.0 | 0.00 | 0.00 | 0.00 | 99 | 1007.9 |
| 20260507084336 | 45 | 183 | 0.0 | 0.0 | 0.00 | 0.00 | 0.00 | 99 | 1007.7 |
| 20260507083834 | 45 | 157 | 0.0 | 0.0 | 0.00 | 0.00 | 0.00 | 98 | 1007.7 |
| 20260507083330 | 45 | 241 | 0.0 | 0.0 | 0.00 | 0.00 | 0.00 | 98 | 1007.7 |
| 20260507082826 | 46 | 92 | 0.0 | 0.0 | 0.00 | 0.00 | 0.00 | 98 | 1007.6 |
| 20260507082321 | 46 | 92 | 0.0 | 0.0 | 0.00 | 0.00 | 0.00 | 98 | 1007.7 |
| 20260507081819 | 46 | 125 | 0.0 | 0.0 | 0.00 | 0.00 | 0.00 | 99 | 1007.7 |
| 20260507081315 | 46 | 141 | 0.0 | 0.0 | 0.00 | 0.00 | 0.00 | 98 | 1007.9 |
| 20260507080812 | 46 | 134 | 0.0 | 0.0 | 0.00 | 0.00 | 0.00 | 98 | 1007.5 |
| 20260507080308 | 46 | 89 | 0.0 | 0.0 | 0.00 | 0.00 | 0.00 | 98 | 1007.2 |
| 20260507075803 | 46 | 150 | 0.0 | 0.0 | 0.00 | 0.00 | 0.00 | 98 | 1007.4 |
| 20260507075259 | 46 | 171 | 0.0 | 0.0 | 0.00 | 0.00 | 0.00 | 98 | 1007.7 |
| 20260507074756 | 46 | 208 | 0.0 | 0.0 | 0.00 | 0.00 | 0.00 | 98 | 1007.8 |
| 20260507074255 | 46 | 165 | 0.0 | 0.0 | 0.00 | 0.00 | 0.00 | 98 | 1007.6 |
| 20260507073751 | 46 | 163 | 0.0 | 0.0 | 0.00 | 0.00 | 0.00 | 98 | 1007.7 |
| 20260507073247 | 46 | 160 | 0.0 | 0.0 | 0.00 | 0.00 | 0.00 | 97 | 1007.4 |
| 20260507072745 | 46 | 180 | 0.0 | 0.0 | 0.00 | 0.00 | 0.00 | 97 | 1007.4 |
| 20260507072242 | 46 | 118 | 0.0 | 0.0 | 0.00 | 0.00 | 0.00 | 98 | 1007.3 |
| 20260507071740 | 46 | 267 | 0.0 | 0.9 | 0.00 | 0.00 | 0.00 | 98 | 1007.3 |
| 20260507071236 | 46 | 182 | 0.0 | 0.0 | 0.00 | 0.00 | 0.00 | 98 | 1007.5 |
| 20260507070733 | 46 | 184 | 0.0 | 0.0 | 0.00 | 0.00 | 0.00 | 97 | 1007.3 |
| 20260507070230 | 46 | 255 | 0.0 | 0.0 | 0.00 | 0.00 | 0.00 | 97 | 1007.0 |
| 20260507065726 | 46 | 168 | 0.0 | 0.0 | 0.00 | 0.00 | 0.00 | 97 | 1007.0 |
| 20260507065223 | 46 | 168 | 0.0 | 0.0 | 0.00 | 0.00 | 0.00 | 97 | 1007.0 |
| 20260507064721 | 47 | 194 | 0.0 | 0.0 | 0.00 | 0.00 | 0.00 | 97 | 1007.2 |
| 20260507064220 | 47 | 133 | 0.0 | 0.0 | 0.00 | 0.00 | 0.00 | 96 | 1007.1 |
| 20260507063716 | 47 | 145 | 0.0 | 0.0 | 0.00 | 0.00 | 0.00 | 95 | 1007.0 |
| 20260507063213 | 47 | 207 | 0.0 | 0.0 | 0.00 | 0.00 | 0.00 | 95 | 1007.4 |
| 20260507062710 | 47 | 197 | 0.0 | 0.0 | 0.00 | 0.00 | 0.00 | 94 | 1007.5 |
| 20260507062208 | 47 | 187 | 0.0 | 0.9 | 0.00 | 0.00 | 0.00 | 93 | 1007.4 |
| 20260507061705 | 47 | 163 | 0.0 | 0.0 | 0.00 | 0.00 | 0.00 | 92 | 1007.6 |
| 20260507061203 | 47 | 122 | 0.9 | 0.9 | 0.00 | 0.00 | 0.00 | 95 | 1007.3 |
| 20260507060701 | 47 | 42 | 0.0 | 0.9 | 0.00 | 0.00 | 0.00 | 96 | 1007.5 |
| 20260507060157 | 47 | 246 | 0.0 | 0.0 | 0.00 | 0.00 | 0.00 | 96 | 1007.4 |
| 20260507055653 | 48 | 251 | 0.0 | 0.0 | 0.00 | 0.00 | 0.00 | 96 | 1007.2 |
| 20260507055149 | 47 | 250 | 0.0 | 0.0 | 0.00 | 0.00 | 0.00 | 96 | 1007.4 |
| 20260507054645 | 47 | 286 | 0.0 | 0.0 | 0.00 | 0.00 | 0.00 | 97 | 1007.4 |
| 20260507054142 | 47 | 99 | 0.0 | 0.9 | 0.00 | 0.00 | 0.00 | 98 | 1007.4 |
| 20260507053640 | 48 | 157 | 0.0 | 0.0 | 0.00 | 0.00 | 0.00 | 98 | 1007.6 |
| 20260507053138 | 47 | 221 | 0.0 | 0.9 | 0.00 | 0.00 | 0.00 | 98 | 1007.4 |
| 20260507052636 | 48 | 342 | 0.0 | 0.0 | 0.00 | 0.00 | 0.00 | 98 | 1007.6 |
| 20260507052132 | 48 | 148 | 0.0 | 0.0 | 0.00 | 0.00 | 0.00 | 98 | 1007.4 |
| 20260507051630 | 48 | 155 | 0.0 | 0.0 | 0.00 | 0.00 | 0.00 | 97 | 1007.3 |
| 20260507051126 | 48 | 162 | 0.0 | 0.0 | 0.00 | 0.00 | 0.00 | 97 | 1007.3 |
| 20260507050623 | 48 | 128 | 0.0 | 0.0 | 0.00 | 0.00 | 0.00 | 96 | 1007.0 |
| 20260507050120 | 48 | 139 | 0.0 | 0.0 | 0.00 | 0.00 | 0.00 | 96 | 1007.3 |
| 20260507045617 | 48 | 117 | 0.0 | 0.0 | 0.00 | 0.00 | 0.00 | 96 | 1007.0 |
| 20260507045114 | 48 | 149 | 0.0 | 0.0 | 0.00 | 0.00 | 0.00 | 96 | 1007.0 |
| 20260507044610 | 48 | 150 | 0.0 | 0.0 | 0.00 | 0.00 | 0.00 | 96 | 1007.2 |
| 20260507044108 | 48 | 246 | 0.0 | 1.7 | 0.00 | 0.00 | 0.00 | 96 | 1007.3 |
| 20260507043603 | 48 | 167 | 0.0 | 0.0 | 0.00 | 0.00 | 0.00 | 97 | 1007.3 |
| 20260507043101 | 48 | 182 | 0.0 | 0.0 | 0.00 | 0.00 | 0.00 | 96 | 1007.3 |
| 20260507042556 | 49 | 190 | 0.0 | 0.0 | 0.00 | 0.00 | 0.00 | 96 | 1006.9 |
| 20260507042052 | 49 | 72 | 0.0 | 0.9 | 0.00 | 0.00 | 0.00 | 95 | 1006.9 |
| 20260507041549 | 49 | 158 | 0.0 | 0.0 | 0.00 | 0.00 | 0.00 | 95 | 1007.6 |
| 20260507041046 | 49 | 270 | 0.0 | 0.0 | 0.00 | 0.00 | 0.00 | 95 | 1007.7 |
| 20260507040542 | 49 | 105 | 0.0 | 0.0 | 0.00 | 0.00 | 0.00 | 94 | 1007.3 |
| 20260507040039 | 49 | 149 | 0.0 | 1.7 | 0.00 | 0.22 | 0.22 | 94 | 1007.6 |
| 20260507035535 | 49 | 303 | 0.0 | 0.9 | 0.00 | 0.22 | 0.22 | 95 | 1007.5 |
| 20260507035031 | 49 | 291 | 0.0 | 1.7 | 0.00 | 0.22 | 0.22 | 94 | 1007.3 |
| 20260507034528 | 49 | 262 | 0.0 | 0.0 | 0.00 | 0.22 | 0.22 | 95 | 1007.2 |
| 20260507034026 | 49 | 319 | 0.0 | 0.0 | 0.00 | 0.22 | 0.22 | 95 | 1006.9 |
| 20260507033524 | 49 | 229 | 0.0 | 2.6 | 0.00 | 0.22 | 0.22 | 95 | 1007.0 |
| 20260507033021 | 50 | 284 | 0.9 | 1.7 | 0.00 | 0.22 | 0.22 | 96 | 1007.1 |
| 20260507032518 | 50 | 299 | 1.7 | 1.7 | 0.00 | 0.22 | 0.22 | 97 | 1007.0 |
| 20260507032014 | 50 | 271 | 0.0 | 0.0 | 0.00 | 0.22 | 0.22 | 97 | 1006.9 |
| 20260507031510 | 50 | 190 | 0.0 | 0.0 | 0.00 | 0.22 | 0.22 | 97 | 1006.8 |
| 20260507031008 | 50 | 237 | 0.0 | 0.9 | 0.00 | 0.22 | 0.22 | 97 | 1007.0 |
| 20260507030504 | 51 | 283 | 0.0 | 0.0 | 0.00 | 0.22 | 0.22 | 97 | 1007.0 |
| 20260507030002 | 51 | 256 | 0.0 | 0.9 | 0.05 | 0.22 | 0.22 | 97 | 1007.0 |
| 20260507025459 | 51 | 210 | 0.0 | 0.9 | 0.05 | 0.22 | 0.22 | 97 | 1007.0 |
| 20260507024956 | 51 | 218 | 0.0 | 0.0 | 0.07 | 0.21 | 0.21 | 97 | 1007.1 |
| 20260507024454 | 52 | 205 | 0.0 | 0.0 | 0.07 | 0.21 | 0.21 | 96 | 1007.2 |
| 20260507023949 | 52 | 145 | 0.0 | 0.0 | 0.00 | 0.20 | 0.20 | 96 | 1007.1 |
| 20260507023446 | 52 | 305 | 0.9 | 2.6 | 0.05 | 0.20 | 0.20 | 95 | 1006.9 |
| 20260507022943 | 52 | 59 | 0.0 | 0.9 | 0.05 | 0.20 | 0.20 | 96 | 1006.9 |
| 20260507022441 | 52 | 304 | 1.7 | 2.6 | 0.00 | 0.19 | 0.19 | 96 | 1007.0 |
| 20260507021936 | 53 | 292 | 1.7 | 1.7 | 0.00 | 0.19 | 0.19 | 97 | 1006.7 |
| 20260507021431 | 53 | 240 | 0.0 | 0.9 | 0.00 | 0.19 | 0.19 | 98 | 1006.6 |
| 20260507020930 | 54 | 14 | 0.0 | 0.9 | 0.00 | 0.19 | 0.19 | 98 | 1006.4 |
| 20260507020426 | 54 | 150 | 0.0 | 0.9 | 0.00 | 0.19 | 0.19 | 98 | 1006.3 |
| 20260507015923 | 55 | 28 | 0.0 | 0.9 | 0.00 | 0.19 | 0.19 | 99 | 1006.2 |
| 20260507015421 | 55 | 46 | 0.0 | 0.0 | 0.00 | 0.19 | 0.19 | 99 | 1006.1 |
| 20260507014918 | 56 | 179 | 0.0 | 0.0 | 0.00 | 0.19 | 0.19 | 99 | 1005.9 |
| 20260507014414 | 56 | 51 | 0.0 | 0.0 | 0.07 | 0.19 | 0.19 | 99 | 1005.9 |
| 20260507013910 | 56 | 52 | 0.0 | 0.0 | 0.07 | 0.19 | 0.19 | 98 | 1005.8 |
| 20260507013408 | 56 | 178 | 0.0 | 0.0 | 0.00 | 0.18 | 0.18 | 98 | 1005.7 |
| 20260507012906 | 56 | 203 | 0.0 | 0.0 | 0.00 | 0.18 | 0.18 | 98 | 1005.8 |
| 20260507012401 | 57 | 193 | 0.0 | 0.0 | 0.07 | 0.18 | 0.18 | 98 | 1005.5 |
| 20260507011859 | 57 | 152 | 0.0 | 0.0 | 0.00 | 0.17 | 0.17 | 98 | 1005.8 |
| 20260507011355 | 57 | 100 | 0.0 | 0.0 | 0.00 | 0.17 | 0.17 | 98 | 1005.4 |
| 20260507010855 | 57 | 101 | 0.0 | 0.0 | 0.00 | 0.17 | 0.17 | 98 | 1005.7 |
| 20260507010351 | 58 | 77 | 0.0 | 0.0 | 0.12 | 0.17 | 0.17 | 98 | 1005.4 |
| 20260507005848 | 58 | 336 | 0.9 | 1.7 | 0.24 | 0.17 | 0.17 | 98 | 1005.5 |
| 20260507005345 | 59 | 248 | 0.0 | 0.0 | 0.12 | 0.15 | 0.15 | 99 | 1005.3 |
| 20260507004842 | 59 | 330 | 0.0 | 0.9 | 0.00 | 0.13 | 0.13 | 98 | 1005.2 |
| 20260507004339 | 59 | 205 | 0.0 | 0.0 | 0.00 | 0.13 | 0.13 | 98 | 1004.9 |
| 20260507003836 | 59 | 169 | 0.0 | 0.0 | 0.00 | 0.13 | 0.13 | 98 | 1004.8 |
| 20260507003331 | 59 | 166 | 0.0 | 0.0 | 0.00 | 0.13 | 0.13 | 97 | 1004.7 |
| 20260507002826 | 59 | 164 | 0.0 | 0.0 | 0.00 | 0.13 | 0.13 | 97 | 1004.7 |
| 20260507002323 | 59 | 163 | 0.0 | 0.0 | 0.00 | 0.13 | 0.13 | 97 | 1004.5 |
| 20260507001820 | 60 | 189 | 0.0 | 0.0 | 0.00 | 0.13 | 0.13 | 96 | 1004.4 |
| 20260507001317 | 60 | 175 | 0.0 | 0.0 | 0.00 | 0.13 | 0.13 | 96 | 1004.6 |
| 20260507000813 | 60 | 187 | 0.0 | 0.0 | 0.00 | 0.13 | 0.13 | 96 | 1004.6 |
| 20260507000309 | 60 | 182 | 0.0 | 0.0 | 0.00 | 0.13 | 0.13 | 95 | 1004.5 |
| 20260506235807 | 60 | 171 | 0.0 | 0.0 | 0.00 | 0.13 | 0.13 | 95 | 1004.4 |
| 20260506235306 | 60 | 104 | 0.0 | 0.9 | 0.00 | 0.13 | 0.13 | 95 | 1004.4 |
| 20260506234759 | 60 | 160 | 0.0 | 0.0 | 0.00 | 0.13 | 0.13 | 94 | 1004.3 |
| 20260506234257 | 60 | 246 | 0.9 | 2.6 | 0.00 | 0.13 | 0.13 | 94 | 1004.2 |
| 20260506233754 | 60 | 202 | 0.0 | 0.0 | 0.00 | 0.13 | 0.13 | 95 | 1004.1 |
| 20260506233250 | 60 | 178 | 0.0 | 0.0 | 0.00 | 0.13 | 0.13 | 95 | 1004.2 |
| 20260506232747 | 60 | 178 | 0.0 | 0.0 | 0.00 | 0.13 | 0.13 | 94 | 1004.2 |
| 20260506232241 | 60 | 189 | 0.0 | 0.9 | 0.00 | 0.13 | 0.13 | 94 | 1004.3 |
| 20260506231739 | 60 | 202 | 0.0 | 0.9 | 0.00 | 0.13 | 0.13 | 94 | 1004.2 |
| 20260506231238 | 60 | 103 | 1.7 | 1.7 | 0.00 | 0.13 | 0.13 | 93 | 1004.3 |
| 20260506230734 | 61 | 155 | 0.0 | 0.0 | 0.00 | 0.13 | 0.13 | 93 | 1004.5 |
| 20260506230231 | 60 | 131 | 0.9 | 1.7 | 0.00 | 0.13 | 0.13 | 93 | 1004.4 |
| 20260506225727 | 60 | 99 | 0.9 | 1.7 | 0.00 | 0.13 | 0.13 | 93 | 1004.5 |
| 20260506225224 | 61 | 272 | 0.0 | 0.0 | 0.00 | 0.13 | 0.13 | 93 | 1004.4 |
| 20260506224721 | 61 | 124 | 1.7 | 2.6 | 0.00 | 0.13 | 0.13 | 92 | 1004.5 |
| 20260506224218 | 60 | 136 | 0.9 | 1.7 | 0.00 | 0.13 | 0.13 | 93 | 1004.4 |
| 20260506223714 | 61 | 158 | 0.0 | 0.0 | 0.00 | 0.13 | 0.13 | 94 | 1004.2 |
| 20260506223210 | 61 | 149 | 0.0 | 0.0 | 0.00 | 0.13 | 0.13 | 93 | 1004.4 |
| 20260506222707 | 61 | 125 | 0.0 | 0.0 | 0.00 | 0.13 | 0.13 | 93 | 1004.4 |
| 20260506222202 | 61 | 338 | 0.0 | 0.9 | 0.00 | 0.13 | 0.13 | 92 | 1004.4 |
| 20260506221701 | 61 | 109 | 1.7 | 3.5 | 0.00 | 0.13 | 0.13 | 92 | 1004.3 |
| 20260506221158 | 61 | 88 | 0.9 | 0.9 | 0.00 | 0.13 | 0.13 | 94 | 1004.4 |
| 20260506220655 | 61 | 164 | 0.0 | 0.9 | 0.00 | 0.13 | 0.13 | 92 | 1004.2 |
| 20260506220150 | 61 | 146 | 0.9 | 0.9 | 0.00 | 0.13 | 0.13 | 93 | 1004.4 |
| 20260506215647 | 61 | 136 | 0.9 | 0.9 | 0.00 | 0.13 | 0.13 | 94 | 1004.4 |
| 20260506215142 | 62 | 168 | 0.0 | 0.0 | 0.00 | 0.13 | 0.13 | 94 | 1004.7 |
| 20260506214639 | 62 | 156 | 0.9 | 1.7 | 0.00 | 0.13 | 0.13 | 94 | 1004.5 |
| 20260506214137 | 62 | 136 | 0.9 | 1.7 | 0.00 | 0.13 | 0.13 | 95 | 1004.4 |
| 20260506213635 | 62 | 193 | 0.0 | 0.0 | 0.00 | 0.13 | 0.13 | 96 | 1004.6 |
| 20260506213132 | 62 | 127 | 0.0 | 0.9 | 0.00 | 0.13 | 0.13 | 95 | 1004.6 |
| 20260506212630 | 62 | 131 | 0.9 | 0.9 | 0.00 | 0.13 | 0.13 | 96 | 1004.6 |
| 20260506212124 | 62 | 182 | 0.0 | 0.0 | 0.00 | 0.13 | 0.13 | 97 | 1004.7 |
| 20260506211620 | 62 | 160 | 0.0 | 0.0 | 0.00 | 0.13 | 0.13 | 97 | 1004.8 |
| 20260506211117 | 61 | 160 | 0.0 | 0.9 | 0.00 | 0.13 | 0.13 | 97 | 1004.8 |
| 20260506210614 | 62 | 187 | 0.9 | 0.9 | 0.00 | 0.13 | 0.13 | 97 | 1004.9 |
| 20260506210110 | 61 | 119 | 0.0 | 0.0 | 0.05 | 0.13 | 0.13 | 97 | 1004.8 |
| 20260506205607 | 61 | 228 | 0.0 | 0.9 | 0.05 | 0.13 | 0.13 | 97 | 1004.7 |
| 20260506205102 | 61 | 135 | 0.0 | 0.9 | 0.00 | 0.12 | 0.12 | 97 | 1004.7 |
| 20260506204600 | 62 | 164 | 0.0 | 0.9 | 0.00 | 0.12 | 0.12 | 96 | 1004.8 |
| 20260506204057 | 61 | 219 | 0.0 | 1.7 | 0.00 | 0.12 | 0.12 | 96 | 1005.0 |
| 20260506203555 | 62 | 133 | 0.0 | 0.9 | 0.00 | 0.12 | 0.12 | 97 | 1004.9 |
| 20260506203052 | 62 | 163 | 0.0 | 0.9 | 0.00 | 0.12 | 0.12 | 96 | 1005.0 |
| 20260506202549 | 62 | 158 | 0.0 | 0.0 | 0.00 | 0.12 | 0.12 | 96 | 1005.1 |
| 20260506202045 | 62 | 265 | 0.0 | 0.9 | 0.00 | 0.12 | 0.12 | 96 | 1005.0 |
| 20260506201543 | 62 | 131 | 0.0 | 1.7 | 0.00 | 0.12 | 0.12 | 96 | 1005.1 |
| 20260506201040 | 62 | 107 | 0.9 | 1.7 | 0.07 | 0.12 | 0.12 | 97 | 1005.0 |
| 20260506200536 | 62 | 87 | 0.0 | 0.9 | 0.07 | 0.12 | 0.12 | 97 | 1004.9 |
| 20260506200033 | 62 | 179 | 0.0 | 1.7 | 0.00 | 0.11 | 0.11 | 97 | 1005.0 |
| 20260506195530 | 62 | 147 | 0.0 | 0.9 | 0.00 | 0.11 | 0.11 | 98 | 1005.0 |
| 20260506195026 | 62 | 154 | 0.0 | 0.0 | 0.05 | 0.11 | 0.11 | 98 | 1005.0 |
| 20260506194524 | 62 | 309 | 0.0 | 0.0 | 0.05 | 0.11 | 0.11 | 97 | 1005.3 |
| 20260506194020 | 62 | 156 | 0.0 | 0.0 | 0.07 | 0.10 | 0.10 | 97 | 1005.7 |
| 20260506193517 | 62 | 142 | 0.0 | 0.0 | 0.12 | 0.10 | 0.10 | 97 | 1005.4 |
| 20260506193014 | 62 | 137 | 0.0 | 0.0 | 0.05 | 0.09 | 0.09 | 97 | 1005.5 |
| 20260506192511 | 62 | 132 | 0.0 | 0.0 | 0.00 | 0.08 | 0.08 | 97 | 1005.5 |
| 20260506192007 | 62 | 121 | 0.0 | 0.0 | 0.00 | 0.08 | 0.08 | 96 | 1005.5 |
| 20260506191504 | 62 | 159 | 0.0 | 0.0 | 0.00 | 0.08 | 0.08 | 96 | 1005.5 |
| 20260506191000 | 62 | 138 | 0.0 | 0.0 | 0.00 | 0.08 | 0.08 | 96 | 1005.4 |
| 20260506190457 | 62 | 159 | 0.0 | 0.0 | 0.00 | 0.08 | 0.08 | 96 | 1005.5 |
| 20260506185954 | 62 | 134 | 0.0 | 0.0 | 0.07 | 0.08 | 0.08 | 97 | 1005.4 |
| 20260506185451 | 61 | 89 | 0.0 | 0.0 | 0.00 | 0.07 | 0.07 | 96 | 1005.4 |
| 20260506184948 | 61 | 64 | 0.0 | 0.0 | 0.00 | 0.07 | 0.07 | 96 | 1005.6 |
| 20260506184445 | 61 | 153 | 0.0 | 0.0 | 0.00 | 0.07 | 0.07 | 97 | 1005.8 |
| 20260506183942 | 61 | 177 | 0.0 | 0.0 | 0.00 | 0.07 | 0.07 | 97 | 1006.2 |
| 20260506183437 | 61 | 5 | 0.0 | 0.0 | 0.07 | 0.07 | 0.07 | 97 | 1006.1 |
| 20260506182935 | 61 | 142 | 0.9 | 0.9 | 0.12 | 0.07 | 0.07 | 96 | 1006.2 |
| 20260506182432 | 61 | 114 | 0.0 | 0.0 | 0.00 | 0.05 | 0.05 | 97 | 1006.4 |
| 20260506181929 | 61 | 129 | 0.0 | 0.9 | 0.00 | 0.05 | 0.05 | 96 | 1006.6 |
| 20260506181427 | 62 | 135 | 0.0 | 0.0 | 0.07 | 0.05 | 0.05 | 96 | 1006.6 |
| 20260506180924 | 62 | 236 | 0.0 | 0.0 | 0.07 | 0.05 | 0.05 | 95 | 1006.6 |
| 20260506180420 | 62 | 130 | 0.0 | 0.0 | 0.05 | 0.04 | 0.04 | 95 | 1006.7 |
| 20260506175917 | 62 | 145 | 0.0 | 0.0 | 0.05 | 0.04 | 0.04 | 94 | 1006.6 |
| 20260506175414 | 62 | 147 | 0.0 | 0.0 | 0.07 | 0.03 | 0.03 | 94 | 1006.7 |
| 20260506174911 | 62 | 176 | 0.0 | 0.0 | 0.07 | 0.03 | 0.03 | 93 | 1006.7 |
| 20260506174408 | 62 | 184 | 0.0 | 0.0 | 0.00 | 0.02 | 0.02 | 93 | 1007.0 |
| 20260506173905 | 62 | 94 | 0.0 | 0.0 | 0.05 | 0.02 | 0.02 | 92 | 1006.8 |
| 20260506173402 | 63 | 155 | 0.0 | 0.0 | 0.05 | 0.02 | 0.02 | 91 | 1007.0 |
| 20260506172859 | 63 | 238 | 0.0 | 0.0 | 0.00 | 0.01 | 0.01 | 89 | 1007.0 |
| 20260506172356 | 64 | 208 | 0.0 | 0.0 | 0.07 | 0.01 | 0.01 | 88 | 1006.8 |
| 20260506171853 | 64 | 197 | 0.0 | 0.0 | 0.07 | 0.01 | 0.01 | 85 | 1007.0 |
| 20260506171350 | 64 | 134 | 0.0 | 0.0 | 0.00 | 0.00 | 0.00 | 83 | 1006.9 |
| 20260506170848 | 65 | 114 | 0.0 | 0.9 | 0.00 | 0.00 | 0.00 | 82 | 1006.7 |
| 20260506170344 | 66 | 135 | 0.9 | 0.9 | 0.00 | 0.00 | 0.00 | 79 | 1006.7 |
| 20260506165843 | 66 | 130 | 1.7 | 3.5 | 0.00 | 0.00 | 0.00 | 75 | 1006.8 |
| 20260506165341 | 67 | 156 | 0.9 | 0.9 | 0.00 | 0.00 | 0.00 | 73 | 1007.0 |
| 20260506164837 | 68 | 259 | 0.9 | 1.7 | 0.00 | 0.00 | 0.00 | 72 | 1006.6 |
| 20260506164334 | 68 | 163 | 0.9 | 2.6 | 0.00 | 0.00 | 0.00 | 71 | 1006.6 |
| 20260506163831 | 68 | 180 | 1.7 | 1.7 | 0.00 | 0.00 | 0.00 | 70 | 1006.5 |
| 20260506163325 | 68 | 194 | 0.9 | 1.7 | 0.00 | 0.00 | 0.00 | 69 | 1006.7 |
| 20260506162821 | 68 | 217 | 1.7 | 1.7 | 0.00 | 0.00 | 0.00 | 68 | 1006.7 |
| 20260506162320 | 69 | 113 | 2.6 | 3.5 | 0.00 | 0.00 | 0.00 | 68 | 1006.9 |
| 20260506161817 | 69 | 208 | 0.9 | 0.9 | 0.00 | 0.00 | 0.00 | 69 | 1006.9 |
| 20260506161314 | 69 | 119 | 0.0 | 2.6 | 0.00 | 0.00 | 0.00 | 68 | 1007.0 |
| 20260506160806 | 69 | 231 | 0.0 | 0.9 | 0.00 | 0.00 | 0.00 | 68 | 1007.2 |
| 20260506160302 | 68 | 134 | 0.0 | 1.7 | 0.00 | 0.00 | 0.00 | 69 | 1007.2 |
| 20260506155801 | 68 | 135 | 1.7 | 1.7 | 0.00 | 0.00 | 0.00 | 69 | 1007.1 |
| 20260506155257 | 68 | 111 | 0.9 | 1.7 | 0.00 | 0.00 | 0.00 | 69 | 1007.5 |
| 20260506153404 | 68 | 244 | 1.7 | 2.6 | 0.00 | 0.00 | 0.00 | 71 | 1007.6 |